Weather History for Yakutat, AK

Change the Weather History Date:

Sunday, September 1, 2013

  Actual Average Record
Temperature  
Mean Temperature 54 °F 51 °F  
Max Temperature 60 °F 59 °F 67 °F (1981)
Min Temperature 47 °F 44 °F 31 °F (1987)
Degree Days  
Heating Degree Days 11 14  
Month to date heating degree days 11 14  
Since 1 July heating degree days 575 692  
Cooling Degree Days 0    
Month to date cooling degree days 0  
Year to date cooling degree days 0  
Growing Degree Days 3 (Base 50)    
Moisture  
Dew Point 54 °F    
Average Humidity 0    
Maximum Humidity 0    
Minimum Humidity 0    
Precipitation  
Precipitation 0.19 in 0.57 in 2.07 in (1997)
Month to date precipitation 0.19 0.57  
Year to date precipitation 77.82 81.87  
Snow  
Snow 0.00 in 0.00 in 0.00 in (2014)
Month to date snowfall 0.0 0.0  
Since 1 July snowfall T 0.0  
Since 1 September snowfall 0.0 0.0  
Snow Depth 0.00 in    
Sea Level Pressure  
Sea Level Pressure 29.83 in    
Wind  
Wind Speed 2 mph (WNW)    
Max Wind Speed 7 mph    
Max Gust Speed 10 mph    
Visibility 4 miles    
Events Rain    
T = Trace of Precipitation, MM = Missing Value Source: NWS Daily Summary

Daily Weather History Graph

Daily Weather History Graph

Search for Another Location

Airport:

Trip Planner

Search our weather history database for the weather conditions in past years. The results will help you decide how hot, cold, wet, or windy it might be!

Date:

Astronomy

Sep. 01, 2013 Rise Set
Actual Time 6:15 AM AKDT 8:19 PM AKDT
Civil Twilight 5:31 AM AKDT 9:03 PM AKDT
Nautical Twilight 4:34 AM AKDT 9:59 PM AKDT
Astronomical Twilight 3:22 AM AKDT 11:10 PM AKDT
Moon 2:09 AM AKDT (9/1) 6:29 PM AKDT (9/1)
Length of Visible Light 15h 31m
Length of Day
14h 03m
Waning Crescent, 13% of the Moon is Illuminated
Sep 1
Waning Crescent
Sep 5
New
Sep 12
First Quarter
Sep 19
Full
Sep 26
Last Quarter

Hourly Weather History & Observations

Time (AKDT) Temp. Dew Point Humidity Pressure Visibility Wind Dir Wind Speed Gust Speed Precip Events Conditions
12:17 AM 57.2 °F 57.2 °F 100% 29.83 in 1.8 mi South 3.5 mph - 0.01 in Rain Light Rain
12:26 AM 57.2 °F 57.2 °F 100% 29.83 in 0.8 mi Calm Calm - 0.01 in Rain Light Rain
12:34 AM 57.2 °F 57.2 °F 100% 29.82 in 0.8 mi South 4.6 mph - 0.01 in   Mist
12:53 AM 57.0 °F 57.0 °F 100% 29.83 in 0.8 mi South 3.5 mph - 0.01 in   Mist
1:20 AM 57.2 °F 57.2 °F 100% 29.82 in 1.2 mi SSW 4.6 mph - N/A   Overcast
1:32 AM 57.2 °F 57.2 °F 100% 29.82 in 1.8 mi Calm Calm - N/A   Overcast
1:41 AM 57.2 °F 57.2 °F 100% 29.82 in 2.0 mi SSW 3.5 mph - N/A   Overcast
1:53 AM 57.0 °F 57.0 °F 100% 29.82 in 3.0 mi Calm Calm - 0.00 in Rain Light Rain
2:00 AM 57.2 °F 57.2 °F 100% 29.82 in 1.8 mi Calm Calm - 0.01 in Rain Light Rain
2:15 AM 57.2 °F 57.2 °F 100% 29.81 in 2.0 mi Calm Calm - 0.01 in Rain Light Rain
2:36 AM 57.2 °F 57.2 °F 100% 29.80 in 3.0 mi Calm Calm - 0.02 in Rain Light Rain
2:43 AM 57.2 °F 57.2 °F 100% 29.80 in 3.0 mi Calm Calm - 0.02 in Rain Light Rain
2:53 AM 57.0 °F 55.9 °F 96% 29.80 in 4.0 mi Calm Calm - 0.03 in Rain Light Rain
3:04 AM 55.4 °F 55.4 °F 100% 29.79 in 1.8 mi Calm Calm - 0.00 in Rain Light Rain
3:17 AM 57.2 °F 57.2 °F 100% 29.79 in 2.0 mi Calm Calm - 0.01 in Rain Light Rain
3:25 AM 55.4 °F 55.4 °F 100% 29.79 in 1.8 mi Calm Calm - 0.01 in Rain Light Rain
3:31 AM 55.4 °F 55.4 °F 100% 29.79 in 0.8 mi Calm Calm - 0.01 in Rain Light Rain
3:38 AM 55.4 °F 55.4 °F 100% 29.79 in 0.8 mi Calm Calm - 0.01 in Rain Light Rain
3:43 AM 55.4 °F 55.4 °F 100% 29.79 in 1.5 mi Calm Calm - 0.01 in Rain Light Rain
3:49 AM 55.4 °F 55.4 °F 100% 29.79 in 3.0 mi Calm Calm - 0.01 in Rain Light Rain
3:53 AM 55.9 °F 55.9 °F 100% 29.79 in 3.0 mi Calm Calm - 0.01 in Rain Light Rain
4:14 AM 55.4 °F 55.4 °F 100% 29.79 in 1.8 mi Calm Calm - 0.00 in   Overcast
4:18 AM 55.4 °F 55.4 °F 100% 29.79 in 1.2 mi ENE 3.5 mph - 0.00 in Rain Light Rain
4:27 AM 55.4 °F 55.4 °F 100% 29.79 in 1.0 mi Calm Calm - 0.00 in Rain Light Rain
4:50 AM 55.4 °F 55.4 °F 100% 29.78 in 1.5 mi Calm Calm - 0.02 in Rain Light Rain
4:53 AM 55.0 °F 55.0 °F 100% 29.78 in 1.5 mi Calm Calm - 0.02 in Rain Light Rain
5:36 AM 55.4 °F 55.4 °F 100% 29.77 in 2.0 mi Calm Calm - 0.02 in Rain Light Rain
5:43 AM 55.4 °F 55.4 °F 100% 29.77 in 1.8 mi Calm Calm - 0.03 in Rain Light Rain
5:53 AM 55.0 °F 55.0 °F 100% 29.78 in 2.5 mi Calm Calm - 0.05 in Rain Light Rain
6:02 AM 55.4 °F 55.4 °F 100% 29.78 in 3.0 mi Calm Calm - 0.01 in Rain Light Rain
6:25 AM 55.4 °F 55.4 °F 100% 29.77 in 5.0 mi Calm Calm - 0.02 in Rain Light Rain
6:35 AM 55.4 °F 55.4 °F 100% 29.77 in 2.0 mi Calm Calm - 0.02 in Rain Light Rain
6:45 AM 55.4 °F 55.4 °F 100% 29.78 in 1.2 mi Calm Calm - 0.03 in Rain Light Rain
6:53 AM 55.0 °F 55.0 °F 100% 29.78 in 1.0 mi Calm Calm - 0.06 in Rain Light Rain
7:00 AM 55.4 °F 55.4 °F 100% 29.78 in 2.0 mi Calm Calm - 0.01 in Rain Light Rain
7:10 AM 55.4 °F 55.4 °F 100% 29.78 in 5.0 mi Calm Calm - 0.01 in   Overcast
7:33 AM 53.6 °F 53.6 °F 100% 29.79 in 10.0 mi WNW 3.5 mph - 0.02 in   Overcast
7:53 AM 52.0 °F 52.0 °F 100% 29.79 in 4.0 mi Variable 4.6 mph - 0.02 in   Overcast
7:56 AM 51.8 °F 51.8 °F 100% 29.79 in 1.8 mi Variable 3.5 mph - N/A   Overcast
8:04 AM 51.8 °F 51.8 °F 100% 29.79 in 1.0 mi NW 4.6 mph - N/A   Overcast
8:20 AM 51.8 °F 51.8 °F 100% 29.79 in 2.0 mi Calm Calm - N/A   Overcast
8:33 AM 51.8 °F 51.8 °F 100% 29.80 in 1.2 mi West 3.5 mph - N/A   Overcast
8:53 AM 53.1 °F 53.1 °F 100% 29.80 in 1.5 mi Calm Calm - N/A   Overcast
9:11 AM 53.6 °F 53.6 °F 100% 29.80 in 3.0 mi West 3.5 mph - N/A   Overcast
9:40 AM 53.6 °F 53.6 °F 100% 29.80 in 10.0 mi Calm Calm - N/A   Overcast
9:53 AM 54.0 °F 54.0 °F 100% 29.80 in 10.0 mi West 5.8 mph - N/A   Overcast
10:53 AM 55.9 °F 54.0 °F 93% 29.82 in 10.0 mi Calm Calm - N/A   Overcast
11:02 AM 55.4 °F 53.6 °F 94% 29.81 in 10.0 mi Variable 4.6 mph - N/A   Overcast
11:32 AM 57.2 °F 53.6 °F 88% 29.82 in 10.0 mi Variable 4.6 mph - N/A   Overcast
11:53 AM 57.0 °F 54.0 °F 89% 29.83 in 10.0 mi WNW 4.6 mph - N/A   Overcast
12:53 PM 57.9 °F 54.0 °F 87% 29.84 in 10.0 mi Variable 4.6 mph - N/A   Overcast
1:53 PM 57.9 °F 54.0 °F 87% 29.86 in 10.0 mi Variable 3.5 mph - N/A   Overcast
2:53 PM 57.9 °F 53.1 °F 84% 29.86 in 10.0 mi West 4.6 mph - N/A   Overcast
3:24 PM 60.8 °F 53.6 °F 77% 29.86 in 10.0 mi Variable 5.8 mph - N/A   Overcast
3:37 PM 59.0 °F 53.6 °F 82% 29.86 in 10.0 mi NW 5.8 mph - N/A   Overcast
3:53 PM 57.9 °F 53.1 °F 84% 29.87 in 10.0 mi NW 3.5 mph - N/A   Overcast
4:53 PM 57.9 °F 53.1 °F 84% 29.87 in 10.0 mi North 4.6 mph - N/A   Overcast
5:08 PM 59.0 °F 53.6 °F 82% 29.87 in 10.0 mi NNW 3.5 mph - N/A   Overcast
5:32 PM 57.2 °F 51.8 °F 82% 29.87 in 10.0 mi North 3.5 mph - N/A   Overcast
5:53 PM 57.0 °F 52.0 °F 83% 29.87 in 10.0 mi NNW 3.5 mph - N/A   Overcast
6:53 PM 57.0 °F 52.0 °F 83% 29.88 in 10.0 mi Calm Calm - N/A   Overcast
7:03 PM 57.2 °F 51.8 °F 82% 29.88 in 10.0 mi WNW 3.5 mph - N/A   Overcast
7:22 PM 55.4 °F 53.6 °F 94% 29.87 in 10.0 mi Calm Calm - N/A   Overcast
7:32 PM 55.4 °F 53.6 °F 94% 29.88 in 10.0 mi Calm Calm - N/A   Mostly Cloudy
7:53 PM 55.0 °F 53.1 °F 93% 29.88 in 10.0 mi Calm Calm - N/A   Scattered Clouds
8:53 PM 52.0 °F 51.1 °F 97% 29.89 in 5.0 mi Calm Calm - N/A   Clear
9:22 PM 50.0 °F 50.0 °F 100% 29.89 in 1.8 mi Calm Calm - N/A   Clear
9:25 PM 50.0 °F 50.0 °F 100% 29.89 in 1.0 mi Calm Calm - N/A   Mist
9:33 PM 50.0 °F 50.0 °F 100% 29.89 in 1.5 mi Calm Calm - N/A   Partly Cloudy
9:41 PM 50.0 °F 50.0 °F 100% 29.89 in 1.0 mi Calm Calm - N/A   Mist
9:50 PM 48.2 °F 48.2 °F 100% 29.89 in 0.8 mi Calm Calm - N/A   Mist
9:53 PM 48.9 °F 48.9 °F 100% 29.90 in 0.8 mi Calm Calm - N/A   Mist
10:23 PM 48.2 °F 48.2 °F 100% 29.90 in 1.2 mi Calm Calm - N/A   Scattered Clouds
10:26 PM 48.2 °F 48.2 °F 100% 29.90 in 1.8 mi Calm Calm - N/A   Mostly Cloudy
10:41 PM 48.2 °F 48.2 °F 100% 29.90 in 3.0 mi Calm Calm - N/A   Mostly Cloudy
10:53 PM 48.9 °F 48.9 °F 100% 29.91 in 10.0 mi Calm Calm - N/A   Overcast
11:06 PM 48.2 °F 48.2 °F 100% 29.91 in 2.5 mi Calm Calm - N/A   Overcast
11:09 PM 48.2 °F 48.2 °F 100% 29.91 in 1.2 mi Calm Calm - N/A   Overcast
11:45 PM 46.4 °F 46.4 °F 100% 29.91 in 2.0 mi Calm Calm - N/A   Mostly Cloudy
11:53 PM 48.0 °F 48.0 °F 100% 29.91 in 4.0 mi Calm Calm - N/A   Mostly Cloudy